Weather History for Buckhannon, WV

Change the Weather History Date:

Saturday, December 8, 2012

  Actual Average (KEKN) Record (KEKN)
Temperature  
Mean Temperature 54 °F 34 °F  
Max Temperature 57 °F 44 °F 75 °F (1966)
Min Temperature 50 °F 25 °F -5 °F (1977)
Degree Days  
Heating Degree Days 11 31  
Month to date heating degree days 236  
Since 1 July heating degree days 1520  
Cooling Degree Days 0 0  
Month to date cooling degree days 0  
Year to date cooling degree days 475  
Growing Degree Days 4 (Base 50)    
Moisture  
Dew Point 52 °F    
Average Humidity 91    
Maximum Humidity 100    
Minimum Humidity 67    
Precipitation  
Precipitation 0.49 in 0.11 in 1.60 in (1972)
Month to date precipitation 0.90  
Year to date precipitation 43.57  
Snow  
Snow 0.00 in - - ()
Month to date snowfall  
Since 1 September snowfall  
Snow Depth -    
Sea Level Pressure  
Sea Level Pressure 29.94 in    
Wind  
Wind Speed 7 mph (SW)    
Max Wind Speed 13 mph    
Max Gust Speed 18 mph    
Visibility 9 miles    
Events Rain    
T = Trace of Precipitation, MM = Missing Value Source: NWS Daily Summary

Daily Weather History Graph

Daily Weather History Graph

Search for Another Location

Airport:

Trip Planner

Search our weather history database for the weather conditions in past years. The results will help you decide how hot, cold, wet, or windy it might be!

Date:

Astronomy

Dec. 08, 2012 Rise Set
Actual Time 7:27 AM EST 4:58 PM EST
Civil Twilight 6:57 AM EST 5:28 PM EST
Nautical Twilight 6:24 AM EST 6:01 PM EST
Astronomical Twilight 5:52 AM EST 6:34 PM EST
Moon 1:52 AM EST (12/8) 1:25 PM EST (12/8)
Length of Visible Light 10h 30m
Length of Day
9h 30m
Waning Crescent, 28% of the Moon is Illuminated
Dec 8
Waning Crescent
Dec 13
New
Dec 20
First Quarter
Dec 28
Full
Jan 4
Last Quarter

Hourly Weather History & Observations

Time (EST) Temp. Dew Point Humidity Pressure Visibility Wind Dir Wind Speed Gust Speed Precip Events Conditions
12:15 AM 55.4 °F 46.4 °F 72% 29.90 in 10.0 mi SSW 8.1 mph - N/A   Partly Cloudy
12:35 AM 55.4 °F 46.4 °F 72% 29.90 in 10.0 mi SSW 5.8 mph - N/A   Scattered Clouds
12:55 AM 55.4 °F 48.2 °F 77% 29.89 in 10.0 mi SSW 5.8 mph - N/A   Mostly Cloudy
1:15 AM 55.4 °F 46.4 °F 72% 29.89 in 10.0 mi SSW 6.9 mph - N/A   Mostly Cloudy
1:35 AM 57.2 °F 46.4 °F 67% 29.89 in 10.0 mi SW 9.2 mph - N/A   Mostly Cloudy
1:55 AM 57.2 °F 46.4 °F 67% 29.89 in 10.0 mi SW 8.1 mph - N/A   Overcast
2:15 AM 57.2 °F 46.4 °F 67% 29.90 in 10.0 mi SW 8.1 mph - N/A   Overcast
2:35 AM 55.4 °F 48.2 °F 77% 29.90 in 5.0 mi SW 10.4 mph - N/A   Haze
2:55 AM 55.4 °F 50.0 °F 82% 29.90 in 10.0 mi SW 10.4 mph - N/A Rain Light Rain
3:15 AM 53.6 °F 51.8 °F 94% 29.91 in 6.0 mi SW 10.4 mph 16.1 mph N/A   Overcast
3:35 AM 53.6 °F 51.8 °F 94% 29.90 in 10.0 mi SSW 8.1 mph - N/A   Overcast
3:55 AM 53.6 °F 51.8 °F 94% 29.90 in 10.0 mi SSW 8.1 mph - N/A   Overcast
4:15 AM 53.6 °F 51.8 °F 94% 29.90 in 10.0 mi SW 8.1 mph - N/A   Overcast
4:35 AM 53.6 °F 51.8 °F 94% 29.90 in 10.0 mi SSW 5.8 mph - N/A   Mostly Cloudy
4:55 AM 53.6 °F 51.8 °F 94% 29.91 in 10.0 mi SW 10.4 mph - N/A   Mostly Cloudy
5:15 AM 53.6 °F 51.8 °F 94% 29.91 in 10.0 mi SW 9.2 mph - N/A   Mostly Cloudy
11:15 AM 57.2 °F 53.6 °F 88% 29.93 in 10.0 mi WSW 9.2 mph - N/A   Unknown
11:35 AM 57.2 °F 53.6 °F 88% 29.92 in 10.0 mi SW 6.9 mph - N/A Rain Light Rain
11:55 AM 55.4 °F 53.6 °F 94% 29.91 in 6.0 mi West 5.8 mph - N/A Rain Light Rain
12:15 PM 55.4 °F 55.4 °F 100% 29.91 in 3.0 mi SW 9.2 mph - N/A Rain Light Rain
12:35 PM 55.4 °F 55.4 °F 100% 29.90 in 3.0 mi SSW 8.1 mph - N/A Rain Light Rain
12:55 PM 55.4 °F 55.4 °F 100% 29.90 in 10.0 mi SSW 5.8 mph - N/A   Overcast
1:15 PM 55.4 °F 55.4 °F 100% 29.90 in 10.0 mi SSW 10.4 mph 18.4 mph N/A   Mostly Cloudy
1:35 PM 55.4 °F 55.4 °F 100% 29.90 in 10.0 mi SSW 10.4 mph - N/A   Scattered Clouds
1:55 PM 57.2 °F 53.6 °F 88% 29.90 in 10.0 mi SW 11.5 mph 16.1 mph N/A   Mostly Cloudy
2:15 PM 57.2 °F 53.6 °F 88% 29.90 in 10.0 mi SW 9.2 mph - N/A   Overcast
2:35 PM 57.2 °F 53.6 °F 88% 29.90 in 10.0 mi SSW 10.4 mph 16.1 mph N/A   Overcast
2:55 PM 57.2 °F 53.6 °F 88% 29.90 in 10.0 mi SSW 6.9 mph - N/A   Overcast
3:15 PM 57.2 °F 53.6 °F 88% 29.91 in 10.0 mi SSW 9.2 mph - N/A   Mostly Cloudy
3:55 PM 57.2 °F 51.8 °F 82% 29.91 in 10.0 mi SSW 8.1 mph - N/A   Overcast
4:15 PM 57.2 °F 51.8 °F 82% 29.92 in 10.0 mi SW 8.1 mph - N/A   Mostly Cloudy
4:55 PM 57.2 °F 51.8 °F 82% 29.93 in 10.0 mi SSW 10.4 mph - N/A   Overcast
5:15 PM 57.2 °F 53.6 °F 88% 29.93 in 10.0 mi SW 12.7 mph 18.4 mph N/A   Overcast
5:35 PM 55.4 °F 53.6 °F 94% 29.95 in 2.5 mi WNW 6.9 mph - 0.16 in Rain Heavy Rain
5:55 PM 53.6 °F 53.6 °F 100% 29.96 in 3.0 mi NW 4.6 mph - 0.39 in Rain Light Rain
6:15 PM 53.6 °F 53.6 °F 100% 29.96 in 10.0 mi WSW 9.2 mph - N/A   Overcast
6:35 PM 53.6 °F 53.6 °F 100% 29.97 in 6.0 mi WSW 6.9 mph - 0.01 in Rain Rain
6:55 PM 53.6 °F 53.6 °F 100% 29.98 in 2.5 mi WSW 5.8 mph - 0.10 in Rain Light Rain
7:15 PM 53.6 °F 53.6 °F 100% 29.99 in 8.0 mi West 5.8 mph - N/A   Light Drizzle
7:35 PM 53.6 °F 53.6 °F 100% 29.99 in 10.0 mi Calm Calm - N/A   Overcast
7:55 PM 53.6 °F 53.6 °F 100% 30.00 in 10.0 mi Calm Calm - N/A   Overcast
8:15 PM 51.8 °F 51.8 °F 100% 30.00 in 10.0 mi NNW 5.8 mph - N/A   Overcast
8:35 PM 51.8 °F 51.8 °F 100% 30.00 in 10.0 mi NNW 5.8 mph - N/A   Overcast
8:55 PM 51.8 °F 51.8 °F 100% 30.02 in 10.0 mi Calm Calm - N/A   Overcast
9:15 PM 51.8 °F 51.8 °F 100% 30.02 in 10.0 mi Calm Calm - N/A   Overcast
9:35 PM 51.8 °F 51.8 °F 100% 30.03 in 10.0 mi Calm Calm - N/A   Overcast
9:55 PM 51.8 °F 51.8 °F 100% 30.03 in 10.0 mi Calm Calm - N/A   Overcast
10:15 PM 51.8 °F 51.8 °F 100% 30.03 in 10.0 mi Calm Calm - N/A   Overcast
10:55 PM 51.8 °F 51.8 °F 100% 30.04 in 9.0 mi Calm Calm - N/A   Mostly Cloudy
11:15 PM 51.8 °F 51.8 °F 100% 30.04 in 8.0 mi Calm Calm - N/A Rain Light Rain
11:55 PM 50.0 °F 50.0 °F 100% 30.04 in 8.0 mi NNE 5.8 mph - N/A   Overcast